Regional Weather Roundup
Issued by NWS Albany, NY

Home | Current Version | Previous Version | Text Only | Print | Product List | Glossary On
Versions: 1 2 3 4 5 6 7 8 9 10 11 12 13 14 15 16 17 18 19 20 21 22 23 24 25 26 27 28 29 30 31 32 33 34 35 36 37 38 39 40 41 42 43 44 45 46 47 48 49 50
000
ASUS41 KALY 311810
RWRALY

NEW YORK STATE HOURLY WEATHER ROUNDUP
NATIONAL WEATHER SERVICE ALBANY NY
200 PM EDT FRI JUL 31 2015

NOTE: "FAIR" INDICATES FEW OR NO CLOUDS BELOW 12,000 FEET WITH NO
SIGNIFICANT WEATHER AND/OR NO OBSTRUCTIONS TO VISIBILITY.

NYZ032-033-038>043-046>054-057>066-NYZ062>081-311900-
EAST


CITY           SKY/WX    TMP DP  RH WIND       PRES   REMARKS
ALBANY         MOSUNNY   83  56  39 W7G17     29.83F
GLENS FALLS    MOSUNNY   83  55  38 NW14      29.80F
POUGHKEEPSIE   MOSUNNY   88  54  31 W14       29.82F
NEWBURGH       SUNNY     86  54  32 NW12G23   29.86F
MONTGOMERY     SUNNY     87  56  34 W12G18    29.85F
WHITE PLAINS   MOSUNNY   85  56  37 NW9       29.85F
ISLIP          MOSUNNY   89  55  31 W15       29.82F
NEW YORK CITY  MOSUNNY   87  55  33 W8        29.83F
CENTRAL PARK   SUNNY     88  55  32 VRB6      29.87F
$$

NYZ005>009-017-018-044>046-055-056-311900-
CENTRAL


CITY           SKY/WX    TMP DP  RH WIND       PRES   REMARKS
FULTON         SUNNY     82  58  43 W9        29.85F
SYRACUSE       MOSUNNY   81  57  43 SW10      29.85F
ROME           SUNNY     79  59  50 W9        29.86F
ELMIRA         MOSUNNY   82  57  42 W10G22    29.87F
BINGHAMTON     MOSUNNY   77  55  46 W12       29.92F
MONTICELLO     MOSUNNY   81  52  36 W15G21    29.92F
$$

NYZ026>034-041>043-311900-
NORTH


CITY           SKY/WX    TMP DP  RH WIND       PRES   REMARKS
WATERTOWN      SUNNY     79  57  46 W13       29.83F
FORT DRUM      NOT AVBL
MASSENA        MOSUNNY   79  59  50 SW9G20    29.78
SARANAC LAKE   PTSUNNY   75  53  46 VRB7      29.82F
PLATTSBURGH    MOSUNNY   81  56  42 VRB6      29.76F
$$

NYZ001>004-010>016-019>021-311900-
WEST


CITY           SKY/WX    TMP DP  RH WIND       PRES   REMARKS
NIAGARA FALLS  PTSUNNY   82  60  47 SW16      29.82F
BUFFALO        MOSUNNY   80  62  54 SW20G30   29.85F
DUNKIRK        SUNNY     80  65  59 W16G23    29.89F
JAMESTOWN      MOSUNNY   79  55  44 W18       29.94F
WELLSVILLE     PTSUNNY   79  55  43 W13G21    29.95F
ROCHESTER      PTSUNNY   81  60  48 SW9       29.83F
PENN YAN       MOSUNNY   82  58  43 S6        29.87F
$$

             KEY
       WCI = WIND CHILL INDEX
       VSB = VISIBILITY
       HX  = HEAT INDEX
$$


USA.gov is the U.S. government's official web portal to all federal, state and local government web resources and services.